TimeCDT,TemperatureF,Dew PointF,Humidity,Sea Level PressureIn,VisibilityMPH,Wind Direction,Wind SpeedMPH,Gust SpeedMPH,PrecipitationIn,Events,Conditions,WindDirDegrees,DateUTC
12:15 AM,62.8,59.0,87,29.65,5.0,SSW,6.9,-,0.07,Rain,Heavy Rain,210,2012-10-14 05:15:00
12:35 AM,62.6,59.0,88,29.62,5.0,SSE,6.9,-,0.14,Rain,Rain,150,2012-10-14 05:35:00
12:55 AM,62.1,58.6,89,29.61,10.0,SSE,9.2,-,0.17,Rain,Light Rain,150,2012-10-14 05:55:00
1:15 AM,61.7,58.5,89,29.60,10.0,SE,10.4,-,0.01,Rain,Light Rain,140,2012-10-14 06:15:00
1:35 AM,61.5,58.3,89,29.60,10.0,ENE,4.6,-,0.01,,Light Drizzle,60,2012-10-14 06:35:00
1:55 AM,61.7,58.1,88,29.60,10.0,ENE,5.8,-,0.01,Rain,Light Rain,60,2012-10-14 06:55:00
2:35 AM,61.7,58.3,89,29.61,10.0,ENE,5.8,-,N/A,,Overcast,70,2012-10-14 07:35:00
2:55 AM,61.7,58.3,89,29.60,10.0,East,10.4,-,0.01,Rain,Light Rain,90,2012-10-14 07:55:00
3:15 AM,61.7,58.3,89,29.60,7.0,NE,5.8,-,0.02,Rain,Rain,40,2012-10-14 08:15:00
3:35 AM,61.5,58.1,89,29.60,10.0,WNW,8.1,-,0.02,Rain,Light Rain,300,2012-10-14 08:35:00
3:55 AM,61.2,58.1,90,29.59,7.0,NW,4.6,-,0.02,Rain,Light Rain,310,2012-10-14 08:55:00
4:15 AM,61.3,58.3,90,29.58,7.0,NW,6.9,-,N/A,Rain,Light Rain,320,2012-10-14 09:15:00
4:35 AM,61.2,58.1,90,29.58,7.0,NW,8.1,-,0.01,Rain,Light Rain,320,2012-10-14 09:35:00
4:55 AM,61.0,57.9,90,29.58,4.0,NW,10.4,-,0.01,,Light Drizzle,320,2012-10-14 09:55:00
5:15 AM,60.4,57.4,90,29.58,3.0,NNW,16.1,-,N/A,,Drizzle,330,2012-10-14 10:15:00
5:35 AM,59.9,56.5,88,29.59,3.0,NNW,17.3,-,0.01,Rain,Light Rain,340,2012-10-14 10:35:00
5:55 AM,58.5,54.9,88,29.60,3.0,NNW,20.7,25.3,0.02,Rain,Light Rain,330,2012-10-14 10:55:00
6:15 AM,58.1,54.5,88,29.61,4.0,NNW,19.6,-,0.01,Rain,Rain,330,2012-10-14 11:15:00
6:35 AM,57.2,53.2,87,29.62,5.0,NNW,18.4,27.6,0.03,Rain,Rain,340,2012-10-14 11:35:00
6:55 AM,56.3,52.7,88,29.62,3.0,North,16.1,26.5,0.09,Rain,Rain,350,2012-10-14 11:55:00
7:15 AM,56.1,52.2,87,29.62,5.0,NNW,16.1,32.2,0.01,Rain,Light Rain,340,2012-10-14 12:15:00
7:35 AM,55.8,52.0,87,29.63,4.0,NNW,16.1,21.9,0.01,,Light Drizzle,340,2012-10-14 12:35:00
7:55 AM,55.4,51.3,86,29.65,4.0,NNW,21.9,28.8,0.01,,Overcast,330,2012-10-14 12:55:00
8:15 AM,54.7,50.2,85,29.65,5.0,NNW,25.3,31.1,N/A,,Haze,330,2012-10-14 13:15:00
8:35 AM,54.5,49.6,84,29.66,5.0,NNW,26.5,32.2,N/A,,Overcast,330,2012-10-14 13:35:00
8:55 AM,53.6,48.6,83,29.67,5.0,NNW,24.2,32.2,N/A,,Haze,330,2012-10-14 13:55:00
9:15 AM,53.6,48.6,83,29.68,5.0,NNW,19.6,31.1,N/A,,Haze,330,2012-10-14 14:15:00
9:35 AM,54.5,49.1,82,29.69,5.0,NNW,23.0,29.9,N/A,,Haze,330,2012-10-14 14:35:00
9:55 AM,55.6,49.1,79,29.70,7.0,NW,26.5,34.5,N/A,,Scattered Clouds,320,2012-10-14 14:55:00
10:15 AM,56.3,49.1,77,29.71,5.0,NW,27.6,34.5,N/A,,Haze,320,2012-10-14 15:15:00
10:35 AM,55.8,49.1,78,29.72,5.0,NNW,24.2,34.5,N/A,,Haze,330,2012-10-14 15:35:00
10:55 AM,55.9,48.7,77,29.75,7.0,NW,26.5,34.5,N/A,,Mostly Cloudy,310,2012-10-14 15:55:00
11:15 AM,55.6,48.2,76,29.75,7.0,NW,26.5,32.2,N/A,,Overcast,320,2012-10-14 16:15:00
11:35 AM,55.4,48.6,78,29.77,7.0,NW,21.9,26.5,N/A,,Overcast,320,2012-10-14 16:35:00
11:55 AM,54.1,47.5,78,29.79,7.0,NW,18.4,29.9,N/A,,Overcast,320,2012-10-14 16:55:00
12:15 PM,54.5,46.8,75,29.79,10.0,NW,21.9,28.8,N/A,,Overcast,320,2012-10-14 17:15:00
12:35 PM,55.6,46.6,72,29.80,10.0,NW,21.9,28.8,N/A,,Overcast,320,2012-10-14 17:35:00
12:55 PM,57.2,47.3,69,29.80,10.0,NNW,21.9,31.1,N/A,,Overcast,330,2012-10-14 17:55:00
1:15 PM,57.7,47.5,69,29.81,10.0,NW,21.9,32.2,N/A,,Overcast,320,2012-10-14 18:15:00
1:35 PM,58.6,47.1,66,29.81,10.0,NW,21.9,28.8,N/A,,Overcast,320,2012-10-14 18:35:00
1:55 PM,59.7,47.5,64,29.81,10.0,NW,20.7,28.8,N/A,,Overcast,310,2012-10-14 18:55:00
2:15 PM,60.3,47.1,62,29.82,10.0,NW,23.0,29.9,N/A,,Overcast,310,2012-10-14 19:15:00
2:35 PM,59.4,45.9,61,29.82,10.0,NW,24.2,31.1,N/A,,Mostly Cloudy,310,2012-10-14 19:35:00
3:15 PM,62.1,45.5,55,29.83,10.0,WNW,17.3,27.6,N/A,,Scattered Clouds,300,2012-10-14 20:15:00
3:35 PM,62.4,45.5,54,29.84,10.0,NNW,23.0,28.8,N/A,,Clear,330,2012-10-14 20:35:00
3:55 PM,62.1,45.3,54,29.85,10.0,NW,19.6,-,N/A,,Clear,310,2012-10-14 20:55:00
4:15 PM,62.6,44.2,51,29.85,10.0,NNW,21.9,26.5,N/A,,Clear,330,2012-10-14 21:15:00
4:35 PM,62.8,43.3,49,29.86,10.0,NW,19.6,26.5,N/A,,Clear,310,2012-10-14 21:35:00
4:55 PM,62.8,42.8,48,29.86,10.0,NW,16.1,23.0,N/A,,Clear,320,2012-10-14 21:55:00
5:15 PM,62.8,43.9,50,29.87,10.0,NW,11.5,20.7,N/A,,Clear,310,2012-10-14 22:15:00
5:35 PM,62.8,42.1,47,29.87,10.0,NW,13.8,17.3,N/A,,Clear,310,2012-10-14 22:35:00
5:55 PM,61.9,42.1,48,29.88,10.0,NW,10.4,-,N/A,,Clear,310,2012-10-14 22:55:00
6:15 PM,61.0,41.2,48,29.88,10.0,NW,10.4,-,N/A,,Clear,310,2012-10-14 23:15:00
6:35 PM,58.6,41.4,53,29.89,10.0,NW,8.1,-,N/A,,Clear,310,2012-10-14 23:35:00
6:55 PM,55.0,42.3,62,29.89,10.0,WNW,8.1,-,N/A,,Clear,290,2012-10-14 23:55:00
7:15 PM,54.0,42.4,65,29.90,10.0,West,9.2,-,N/A,,Clear,280,2012-10-15 00:15:00
7:35 PM,52.7,42.4,68,29.90,10.0,WNW,8.1,-,N/A,,Clear,290,2012-10-15 00:35:00
7:55 PM,49.3,41.4,74,29.91,10.0,West,8.1,-,N/A,,Clear,280,2012-10-15 00:55:00
8:15 PM,49.1,41.9,76,29.91,10.0,WNW,6.9,-,N/A,,Clear,290,2012-10-15 01:15:00
8:35 PM,48.0,41.4,78,29.91,10.0,West,8.1,-,N/A,,Clear,280,2012-10-15 01:35:00
8:55 PM,48.4,41.4,77,29.92,10.0,West,8.1,-,N/A,,Clear,280,2012-10-15 01:55:00
9:15 PM,47.5,40.6,77,29.93,10.0,WNW,6.9,-,N/A,,Clear,290,2012-10-15 02:15:00
9:35 PM,47.1,40.1,77,29.93,10.0,WNW,6.9,-,N/A,,Clear,290,2012-10-15 02:35:00
9:55 PM,46.2,40.1,79,29.93,10.0,WNW,4.6,-,N/A,,Clear,300,2012-10-15 02:55:00
10:15 PM,46.4,39.6,77,29.94,10.0,WNW,4.6,-,N/A,,Clear,290,2012-10-15 03:15:00
10:35 PM,46.0,39.7,79,29.94,10.0,WNW,5.8,-,N/A,,Clear,300,2012-10-15 03:35:00
10:55 PM,44.4,38.7,80,29.94,10.0,West,8.1,-,N/A,,Clear,280,2012-10-15 03:55:00
11:15 PM,43.9,38.8,82,29.94,10.0,West,9.2,-,N/A,,Clear,270,2012-10-15 04:15:00
11:35 PM,43.3,38.7,84,29.95,10.0,West,9.2,-,N/A,,Clear,280,2012-10-15 04:35:00
11:55 PM,43.9,39.0,83,29.95,10.0,West,10.4,-,N/A,,Clear,270,2012-10-15 04:55:00